Location: Bismarck
(46.7731°N, 100.8200°W)
Time: 06:50:17
(UTC-05:00)

ISS - All Passes

Search period start: 30 September 2014 00:00
Search period end: 10 October 2014 00:00
Orbit: 413 x 416 km, 51.6° (Epoch: 30 September)

Date Brightness Start Highest point End Pass type
(mag) Time Alt. Az. Time Alt. Az. Time Alt. Az.
30 Sep - 00:28:35 10° SW 00:31:53 67° SSE 00:35:12 10° ENE night (unlit)
30 Sep - 02:05:35 10° W 02:08:45 39° N 02:11:55 10° ENE night (unlit)
30 Sep - 03:42:46 10° WNW 03:45:55 37° N 03:49:03 10° E night (unlit)
30 Sep - 05:19:29 10° WNW 05:22:49 76° SSW 05:26:08 10° ESE visible
30 Sep - 06:57:22 10° WSW 06:59:02 13° SW 07:00:42 10° SSW visible
30 Sep - 23:39:42 10° SW 23:42:52 42° SE 23:46:02 10° ENE night (unlit)
01 Oct - 01:16:19 10° W 01:19:34 47° NNW 01:22:48 10° ENE night (unlit)
01 Oct - 02:53:37 10° WNW 02:56:43 34° N 02:59:48 10° ENE night (unlit)
01 Oct - 04:30:24 10° WNW 04:33:44 74° NNE 04:37:03 10° ESE visible
01 Oct - 06:07:33 10° W 06:10:09 21° SW 06:12:44 10° S visible
01 Oct - 22:51:02 10° SSW 22:53:53 26° SE 22:56:44 10° E night (unlit)
02 Oct - 00:27:05 10° WSW 00:30:23 63° NNW 00:33:42 10° ENE night (unlit)
02 Oct - 02:04:23 10° WNW 02:07:28 34° N 02:10:33 10° ENE night (unlit)
02 Oct - 03:41:18 10° WNW 03:44:35 53° NNE 03:47:51 10° E night (unlit)
02 Oct - 05:18:09 10° WNW 05:21:11 33° SW 05:24:13 10° SSE visible
02 Oct - 22:02:43 10° S 22:04:56 17° SE 22:07:09 10° E night (unlit)
02 Oct - 23:37:54 10° WSW 23:41:15 89° NNW 23:44:35 10° ENE night (unlit)
03 Oct - 01:15:05 10° WNW 01:18:12 35° N 01:21:19 10° ENE night (unlit)
03 Oct - 02:52:10 10° WNW 02:55:22 42° NNE 02:58:34 10° E night (unlit)
03 Oct - 04:28:53 10° WNW 04:32:09 54° SSW 04:35:24 10° SE night (unlit)
03 Oct - 21:15:40 10° SE 21:16:01 10° SE 21:16:22 10° SE night (unlit)
03 Oct - 22:48:50 10° SW 22:52:07 60° SSE 22:55:25 10° ENE night (unlit)
04 Oct - 00:25:45 10° W 00:28:56 40° NNW 00:32:07 10° ENE night (unlit)
04 Oct - 02:02:58 10° WNW 02:06:06 36° N 02:09:13 10° ENE night (unlit)
04 Oct - 03:39:41 10° WNW 03:43:02 84° SSW 03:46:21 10° ESE night (unlit)
04 Oct - 05:17:19 10° W 05:19:17 15° SW 05:21:15 10° S night (unlit)
04 Oct - 21:59:55 10° SSW 22:03:01 37° SE 22:06:08 10° ENE night (unlit)
04 Oct - 23:36:25 10° W 23:39:40 50° NNW 23:42:56 10° ENE night (unlit)
05 Oct - 01:13:42 10° WNW 01:16:48 34° N 01:19:53 10° ENE night (unlit)
05 Oct - 02:50:31 10° WNW 02:53:50 68° NNE 02:57:09 10° ESE night (unlit)
05 Oct - 04:27:34 10° W 04:30:18 24° SW 04:33:01 10° SSE night (unlit)
05 Oct - 21:11:14 10° SSW 21:13:57 24° SE 21:16:42 10° E visible
05 Oct - 22:47:06 10° WSW 22:50:25 68° NNW 22:53:45 10° ENE night (unlit)
06 Oct - 00:24:22 10° WNW 00:27:27 34° N 00:30:33 10° ENE night (unlit)
06 Oct - 02:01:19 10° WNW 02:04:35 50° NNE 02:07:50 10° E night (unlit)
06 Oct - 03:38:07 10° WNW 03:41:14 38° SW 03:44:20 10° SSE night (unlit)
06 Oct - 20:22:58 10° S 20:24:56 15° SE 20:26:54 10° E visible
06 Oct - 21:57:51 10° WSW 22:01:11 83° SSE 22:04:31 10° ENE visible
06 Oct - 23:34:59 10° WNW 23:38:06 36° N 23:41:14 10° ENE night (unlit)
07 Oct - 01:12:05 10° WNW 01:15:16 40° NNE 01:18:27 10° E night (unlit)
07 Oct - 02:48:47 10° WNW 02:52:05 60° SSW 02:55:22 10° SE night (unlit)
07 Oct - 04:27:47 10° SW 04:28:11 10° SW 04:28:34 10° SW night (unlit)
07 Oct - 21:08:43 10° SW 21:11:59 53° SSE 21:15:14 10° ENE visible
07 Oct - 22:45:33 10° W 22:48:45 42° NNW 22:51:57 10° ENE visible
08 Oct - 00:22:47 10° WNW 00:25:54 35° N 00:29:01 10° ENE night (unlit)
08 Oct - 01:59:31 10° WNW 02:02:52 88° NNE 02:06:11 10° ESE night (unlit)
08 Oct - 03:36:56 10° W 03:39:10 17° SW 03:41:23 10° S night (unlit)
08 Oct - 20:19:46 10° SSW 20:22:48 33° SE 20:25:51 10° ENE visible
08 Oct - 21:56:07 10° W 21:59:24 54° NNW 22:02:41 10° ENE visible
08 Oct - 23:33:25 10° WNW 23:36:30 34° N 23:39:35 10° ENE night (unlit)
09 Oct - 01:10:15 10° WNW 01:13:34 62° NNE 01:16:52 10° ESE night (unlit)
09 Oct - 02:47:13 10° W 02:50:04 27° SW 02:52:55 10° SSE night (unlit)
09 Oct - 19:31:05 10° S 19:33:40 21° SE 19:36:15 10° E visible
09 Oct - 21:06:44 10° WSW 21:10:04 75° NNW 21:13:24 10° ENE visible
09 Oct - 22:43:59 10° WNW 22:47:05 34° N 22:50:10 10° ENE visible
